MEV-2 (46113 NORAD) Tracking and Keplerian Element Data

This shows tracking and keplerian element data for the satellite.

Feedback or suggestion? Click here.




ElementValue
Catalog46113
NameMEV-2
Epoch Orbit160
Epoch Day328.27072157
Epoch Year2020
RAAN112.8053
Inclination1.3727
Eccentricity0.3215966
Argument of Perigee198.2124
Mean Anonmoly146.8758
Mean Motion1.20277735
Decay Rate-1.1E-06
L11 46113U 20056B 20328.27072157 -.00000110 00000-0 00000+0 0 9996
L22 46113 1.3727 112.8053 3215966 198.2124 146.8758 1.20277735 1606

Live tracking and technical data element details for MEV-2 (NORAD 46113). MEV-2 can be tracked NOW for your location showing map with azimuth and elevation plus other details from your city location.

Track the satellite on the map from your city or location and see movement details for azimuth, elevation, latitude, longitude, range, height, and movement on the map or in text.







IsCatalogInMostPopularTable: catalog: 46113, numindb: 17
Update: records affected: 1



GetName: 46113 MEV-2

Hit Count: updated at: Thu, 26 Nov 2020 23:31:19 GMT